QPF
0.09 0.08 0.05 0.08 0.09 0.09 0.12 0.20 0.28 0.30 0.29 0.31 0.35 0.37 0.35 0.27 0.22 0.21 0.20 0.17 0.16 0.14 0.09 0.05 0.04 0.04 0.04 0.04 0.03 0.02 0.02 0.02 0.02 0.02 0.01 0.01 0.00 0.00 0.00 0.00 0.00 0.00 0.00
0.08 0.10 0.09 0.10 0.11 0.10 0.13 0.17 0.23 0.28 0.29 0.30 0.34 0.39 0.39 0.34 0.26 0.23 0.24 0.23 0.20 0.18 0.14 0.09 0.05 0.04 0.04 0.04 0.05 0.05 0.04 0.04 0.04 0.04 0.03 0.02 0.01 0.00 0.00 0.00 0.00 0.01 0.01
0.09 0.09 0.10 0.13 0.15 0.14 0.15 0.18 0.20 0.23 0.24 0.24 0.28 0.35 0.43 0.41 0.34 0.27 0.24 0.25 0.25 0.22 0.19 0.13 0.08 0.05 0.05 0.05 0.05 0.05 0.04 0.04 0.05 0.04 0.04 0.03 0.01 0.01 0.00 0.00 0.00 0.01 0.01
0.11 0.10 0.11 0.13 0.16 0.17 0.18 0.17 0.18 0.22 0.25 0.21 0.22 0.27 0.34 0.39 0.34 0.27 0.23 0.24 0.26 0.26 0.21 0.17 0.12 0.09 0.08 0.06 0.06 0.06 0.06 0.06 0.07 0.08 0.06 0.04 0.03 0.02 0.01 0.00 0.01 0.01 0.01
0.11 0.11 0.14 0.16 0.17 0.18 0.20 0.20 0.18 0.19 0.24 0.22 0.20 0.22 0.25 0.30 0.36 0.35 0.28 0.24 0.24 0.25 0.23 0.19 0.16 0.13 0.12 0.10 0.08 0.07 0.07 0.07 0.07 0.07 0.06 0.06 0.04 0.02 0.02 0.01 0.01 0.00 0.00
0.11 0.14 0.16 0.16 0.16 0.15 0.15 0.19 0.20 0.20 0.21 0.21 0.21 0.21 0.22 0.28 0.36 0.36 0.31 0.25 0.22 0.22 0.21 0.21 0.21 0.17 0.16 0.14 0.14 0.13 0.11 0.09 0.08 0.07 0.06 0.05 0.05 0.05 0.04 0.03 0.01 0.01 0.00
0.13 0.16 0.17 0.17 0.16 0.14 0.14 0.16 0.18 0.20 0.20 0.22 0.22 0.24 0.22 0.26 0.35 0.36 0.31 0.25 0.21 0.20 0.19 0.19 0.21 0.20 0.18 0.17 0.15 0.16 0.14 0.12 0.11 0.09 0.08 0.07 0.05 0.04 0.04 0.03 0.02 0.01 0.01
0.11 0.13 0.15 0.17 0.16 0.14 0.15 0.14 0.13 0.15 0.15 0.17 0.19 0.21 0.23 0.25 0.29 0.34 0.32 0.27 0.22 0.18 0.18 0.19 0.19 0.18 0.17 0.16 0.16 0.17 0.17 0.16 0.12 0.09 0.07 0.05 0.05 0.05 0.04 0.04 0.03 0.03 0.02
0.15 0.15 0.16 0.16 0.14 0.15 0.17 0.15 0.14 0.14 0.15 0.14 0.14 0.16 0.19 0.23 0.25 0.27 0.29 0.26 0.24 0.22 0.20 0.20 0.19 0.18 0.16 0.15 0.15 0.14 0.14 0.15 0.14 0.12 0.09 0.06 0.05 0.05 0.04 0.04 0.03 0.03 0.03
0.14 0.13 0.15 0.15 0.15 0.16 0.16 0.15 0.14 0.13 0.15 0.15 0.14 0.14 0.15 0.20 0.25 0.26 0.23 0.23 0.23 0.24 0.25 0.23 0.22 0.21 0.19 0.17 0.16 0.15 0.14 0.12 0.12 0.11 0.10 0.08 0.07 0.06 0.05 0.04 0.04 0.04 0.03
0.13 0.13 0.15 0.15 0.18 0.21 0.19 0.15 0.14 0.13 0.15 0.16 0.15 0.15 0.16 0.15 0.18 0.23 0.24 0.22 0.22 0.21 0.22 0.22 0.20 0.20 0.20 0.20 0.20 0.19 0.16 0.14 0.13 0.11 0.10 0.09 0.08 0.07 0.06 0.05 0.04 0.04 0.03
0.12 0.10 0.11 0.12 0.17 0.17 0.12 0.10 0.12 0.11 0.12 0.13 0.14 0.15 0.12 0.12 0.13 0.17 0.21 0.20 0.19 0.18 0.17 0.18 0.19 0.18 0.18 0.18 0.19 0.20 0.19 0.16 0.13 0.11 0.10 0.09 0.08 0.07 0.06 0.05 0.04 0.03 0.03
0.09 0.09 0.08 0.08 0.09 0.08 0.07 0.07 0.08 0.09 0.09 0.09 0.09 0.10 0.09 0.09 0.10 0.12 0.13 0.15 0.17 0.16 0.14 0.12 0.13 0.14 0.14 0.15 0.15 0.14 0.15 0.15 0.14 0.13 0.11 0.09 0.08 0.08 0.07 0.06 0.05 0.04 0.03
0.06 0.07 0.06 0.06 0.06 0.07 0.06 0.07 0.07 0.07 0.08 0.08 0.07 0.06 0.06 0.06 0.05 0.05 0.06 0.08 0.10 0.12 0.12 0.12 0.12 0.12 0.13 0.14 0.15 0.14 0.13 0.13 0.13 0.13 0.13 0.11 0.09 0.07 0.07 0.06 0.05 0.03 0.02
0.03 0.04 0.04 0.04 0.05 0.05 0.06 0.06 0.06 0.06 0.06 0.06 0.05 0.04 0.04 0.04 0.04 0.04 0.04 0.05 0.06 0.07 0.08 0.10 0.10 0.10 0.10 0.11 0.12 0.13 0.13 0.11 0.10 0.10 0.10 0.09 0.08 0.07 0.06 0.05 0.04 0.03 0.02
0.01 0.02 0.02 0.02 0.02 0.03 0.05 0.05 0.04 0.04 0.03 0.03 0.03 0.02 0.02 0.02 0.02 0.03 0.03 0.03 0.04 0.04 0.05 0.07 0.08 0.08 0.09 0.11 0.11 0.09 0.09 0.08 0.07 0.06 0.05 0.05 0.06 0.06 0.07 0.05 0.04 0.03 0.02
0.01 0.01 0.01 0.01 0.02 0.02 0.03 0.03 0.03 0.02 0.02 0.02 0.02 0.02 0.02 0.02 0.01 0.01 0.02 0.02 0.03 0.03 0.04 0.04 0.05 0.06 0.08 0.10 0.10 0.10 0.08 0.07 0.06 0.05 0.04 0.03 0.03 0.04 0.04 0.05 0.05 0.04 0.02
0.00 0.00 0.00 0.00 0.01 0.01 0.01 0.01 0.01 0.02 0.03 0.02 0.02 0.02 0.02 0.01 0.01 0.02 0.02 0.02 0.03 0.03 0.04 0.04 0.05 0.05 0.07 0.10 0.10 0.10 0.08 0.08 0.07 0.06 0.05 0.04 0.03 0.02 0.02 0.03 0.03 0.03 0.02
0.00 0.00 0.00 0.00 0.00 0.00 0.00 0.00 0.00 0.01 0.02 0.03 0.02 0.02 0.02 0.01 0.02 0.02 0.02 0.02 0.03 0.04 0.04 0.04 0.04 0.04 0.04 0.05 0.06 0.07 0.06 0.07 0.08 0.07 0.06 0.05 0.04 0.04 0.04 0.03 0.03 0.03 0.03
0.00 0.00 0.00 0.00 0.00 0.00 0.00 0.00 0.00 0.00 0.01 0.01 0.01 0.01 0.01 0.02 0.02 0.02 0.01 0.01 0.02 0.03 0.04 0.04 0.04 0.04 0.03 0.04 0.04 0.04 0.04 0.04 0.05 0.05 0.05 0.06 0.05 0.05 0.05 0.04 0.04 0.04 0.03
0.00 0.00 0.00 0.00 0.00 0.00 0.00 0.00 0.00 0.00 0.00 0.00 0.00 0.00 0.00 0.02 0.03 0.03 0.02 0.02 0.02 0.03 0.03 0.04 0.04 0.03 0.04 0.04 0.04 0.03 0.03 0.03 0.03 0.04 0.04 0.04 0.06 0.06 0.05 0.04 0.04 0.04 0.04
0.00 0.00 0.00 0.00 0.00 0.00 0.00 0.00 0.00 0.00 0.00 0.00 0.00 0.00 0.00 0.01 0.02 0.03 0.03 0.03 0.03 0.03 0.03 0.04 0.03 0.03 0.03 0.04 0.04 0.04 0.04 0.04 0.04 0.03 0.03 0.04 0.06 0.07 0.07 0.07 0.06 0.05 0.05
0.00 0.00 0.00 0.00 0.00 0.00 0.00 0.00 0.00 0.00 0.00 0.00 0.00 0.00 0.00 0.00 0.01 0.01 0.02 0.03 0.03 0.04 0.04 0.04 0.04 0.04 0.03 0.03 0.04 0.04 0.06 0.06 0.06 0.05 0.05 0.05 0.07 0.08 0.08 0.08 0.07 0.06 0.05
0.00 0.00 0.00 0.00 0.00 0.00 0.00 0.00 0.00 0.00 0.00 0.00 0.00 0.00 0.00 0.00 0.00 0.01 0.01 0.01 0.02 0.03 0.03 0.04 0.04 0.04 0.04 0.04 0.04 0.04 0.05 0.08 0.08 0.07 0.07 0.07 0.07 0.08 0.08 0.08 0.07 0.06 0.04
0.00 0.00 0.00 0.00 0.00 0.00 0.00 0.00 0.00 0.00 0.00 0.00 0.00 0.00 0.00 0.00 0.00 0.00 0.01 0.01 0.01 0.02 0.02 0.03 0.04 0.05 0.05 0.05 0.06 0.06 0.06 0.07 0.08 0.09 0.08 0.08 0.07 0.07 0.07 0.07 0.06 0.05 0.04
0.00 0.00 0.00 0.00 0.00 0.00 0.00 0.00 0.00 0.00 0.00 0.00 0.00 0.00 0.00 0.00 0.00 0.00 0.00 0.01 0.01 0.02 0.02 0.02 0.03 0.04 0.05 0.07 0.07 0.08 0.08 0.09 0.10 0.12 0.11 0.09 0.07 0.06 0.06 0.06 0.06 0.06 0.05
MSLP
1009.45 1009.42 1009.37 1009.29 1009.17 1009.05 1008.96 1008.94 1009.03 1009.23 1009.54 1009.92 1010.31 1010.67 1010.96 1011.15 1011.25 1011.27 1011.26 1011.28 1011.37 1011.56 1011.86 1012.28 1012.78 1013.33 1013.89 1014.42 1014.90 1015.32 1015.67 1015.98 1016.25 1016.49 1016.70 1016.90 1017.08 1017.24 1017.38 1017.52 1017.65 1017.78 1017.92
1008.83 1008.90 1008.95 1008.94 1008.88 1008.79 1008.71 1008.67 1008.73 1008.89 1009.14 1009.47 1009.81 1010.14 1010.40 1010.57 1010.66 1010.68 1010.68 1010.71 1010.80 1010.99 1011.29 1011.70 1012.19 1012.72 1013.25 1013.76 1014.23 1014.65 1015.03 1015.37 1015.68 1015.98 1016.27 1016.54 1016.80 1017.03 1017.25 1017.45 1017.64 1017.82 1018.00
1008.34 1008.49 1008.62 1008.68 1008.67 1008.59 1008.51 1008.44 1008.45 1008.54 1008.72 1008.97 1009.25 1009.52 1009.75 1009.90 1009.98 1010.02 1010.05 1010.10 1010.22 1010.44 1010.75 1011.15 1011.62 1012.13 1012.63 1013.11 1013.56 1013.97 1014.36 1014.72 1015.07 1015.42 1015.77 1016.11 1016.44 1016.75 1017.03 1017.29 1017.54 1017.78 1018.01
1008.11 1008.32 1008.50 1008.60 1008.61 1008.53 1008.42 1008.30 1008.24 1008.25 1008.34 1008.49 1008.69 1008.89 1009.06 1009.19 1009.27 1009.33 1009.40 1009.49 1009.66 1009.90 1010.24 1010.64 1011.10 1011.58 1012.05 1012.51 1012.93 1013.33 1013.71 1014.08 1014.46 1014.85 1015.24 1015.63 1016.01 1016.37 1016.71 1017.03 1017.33 1017.62 1017.91
1008.23 1008.48 1008.68 1008.79 1008.78 1008.68 1008.51 1008.33 1008.18 1008.09 1008.07 1008.11 1008.21 1008.33 1008.44 1008.54 1008.62 1008.70 1008.80 1008.94 1009.15 1009.43 1009.78 1010.19 1010.63 1011.09 1011.53 1011.96 1012.35 1012.73 1013.10 1013.48 1013.87 1014.27 1014.68 1015.10 1015.50 1015.90 1016.27 1016.63 1016.99 1017.33 1017.68
1008.76 1009.01 1009.20 1009.28 1009.23 1009.07 1008.84 1008.57 1008.32 1008.13 1007.99 1007.93 1007.92 1007.95 1008.00 1008.06 1008.13 1008.21 1008.33 1008.51 1008.74 1009.05 1009.41 1009.81 1010.24 1010.66 1011.08 1011.47 1011.84 1012.19 1012.55 1012.91 1013.29 1013.69 1014.10 1014.52 1014.93 1015.34 1015.74 1016.13 1016.53 1016.93 1017.34
1009.66 1009.89 1010.04 1010.06 1009.95 1009.72 1009.41 1009.06 1008.72 1008.42 1008.18 1008.01 1007.90 1007.85 1007.83 1007.84 1007.88 1007.96 1008.08 1008.26 1008.50 1008.80 1009.15 1009.53 1009.92 1010.31 1010.68 1011.03 1011.36 1011.69 1012.02 1012.37 1012.73 1013.11 1013.50 1013.90 1014.30 1014.71 1015.12 1015.54 1015.99 1016.45 1016.93
1010.83 1011.02 1011.11 1011.07 1010.89 1010.59 1010.21 1009.78 1009.37 1008.99 1008.66 1008.41 1008.21 1008.08 1007.99 1007.95 1007.94 1007.99 1008.09 1008.25 1008.46 1008.73 1009.03 1009.36 1009.69 1010.02 1010.33 1010.63 1010.92 1011.21 1011.50 1011.81 1012.14 1012.49 1012.86 1013.23 1013.62 1014.02 1014.45 1014.91 1015.41 1015.93 1016.49
1012.13 1012.27 1012.29 1012.18 1011.94 1011.59 1011.16 1010.69 1010.23 1009.80 1009.42 1009.11 1008.85 1008.65 1008.50 1008.40 1008.34 1008.34 1008.39 1008.49 1008.64 1008.84 1009.06 1009.30 1009.55 1009.79 1010.03 1010.25 1010.48 1010.71 1010.97 1011.24 1011.53 1011.84 1012.18 1012.53 1012.90 1013.31 1013.76 1014.26 1014.82 1015.43 1016.08
1013.39 1013.48 1013.45 1013.28 1013.00 1012.62 1012.17 1011.70 1011.23 1010.80 1010.40 1010.06 1009.77 1009.52 1009.32 1009.16 1009.04 1008.97 1008.94 1008.96 1009.02 1009.11 1009.22 1009.35 1009.48 1009.62 1009.75 1009.89 1010.04 1010.21 1010.41 1010.64 1010.89 1011.17 1011.47 1011.81 1012.18 1012.60 1013.09 1013.64 1014.26 1014.95 1015.69
1014.48 1014.52 1014.45 1014.26 1013.96 1013.59 1013.17 1012.73 1012.30 1011.90 1011.53 1011.19 1010.89 1010.61 1010.37 1010.15 1009.97 1009.81 1009.70 1009.61 1009.55 1009.52 1009.50 1009.49 1009.49 1009.50 1009.52 1009.55 1009.62 1009.72 1009.86 1010.03 1010.25 1010.49 1010.78 1011.11 1011.49 1011.93 1012.45 1013.05 1013.75 1014.51 1015.33
1015.34 1015.35 1015.25 1015.06 1014.78 1014.45 1014.09 1013.72 1013.36 1013.02 1012.69 1012.39 1012.09 1011.80 1011.53 1011.26 1011.01 1010.77 1010.56 1010.36 1010.18 1010.01 1009.85 1009.70 1009.56 1009.44 1009.34 1009.27 1009.25 1009.27 1009.35 1009.48 1009.65 1009.88 1010.15 1010.48 1010.86 1011.33 1011.88 1012.53 1013.28 1014.11 1014.99
1015.98 1015.97 1015.87 1015.69 1015.46 1015.19 1014.91 1014.63 1014.36 1014.09 1013.83 1013.56 1013.28 1012.99 1012.69 1012.38 1012.06 1011.75 1011.45 1011.14 1010.85 1010.55 1010.26 1009.98 1009.71 1009.46 1009.24 1009.08 1008.96 1008.92 1008.94 1009.02 1009.17 1009.37 1009.64 1009.96 1010.36 1010.84 1011.42 1012.10 1012.87 1013.73 1014.63
1016.46 1016.43 1016.34 1016.19 1016.01 1015.82 1015.63 1015.45 1015.26 1015.07 1014.86 1014.63 1014.37 1014.07 1013.75 1013.41 1013.04 1012.67 1012.29 1011.90 1011.51 1011.11 1010.71 1010.31 1009.93 1009.57 1009.25 1009.00 1008.81 1008.70 1008.67 1008.72 1008.84 1009.03 1009.28 1009.61 1010.01 1010.49 1011.07 1011.75 1012.52 1013.37 1014.26
1016.85 1016.82 1016.73 1016.62 1016.50 1016.39 1016.27 1016.17 1016.05 1015.92 1015.75 1015.55 1015.30 1015.00 1014.66 1014.29 1013.89 1013.47 1013.03 1012.58 1012.12 1011.65 1011.17 1010.69 1010.21 1009.77 1009.38 1009.05 1008.80 1008.64 1008.57 1008.59 1008.69 1008.86 1009.11 1009.42 1009.81 1010.29 1010.85 1011.50 1012.24 1013.05 1013.90
1017.22 1017.18 1017.12 1017.04 1016.97 1016.91 1016.85 1016.80 1016.73 1016.63 1016.48 1016.29 1016.03 1015.73 1015.38 1014.99 1014.57 1014.12 1013.66 1013.18 1012.68 1012.16 1011.63 1011.09 1010.57 1010.07 1009.61 1009.23 1008.93 1008.73 1008.63 1008.62 1008.70 1008.86 1009.09 1009.39 1009.77 1010.22 1010.75 1011.36 1012.04 1012.78 1013.56
1017.60 1017.57 1017.52 1017.47 1017.43 1017.40 1017.37 1017.34 1017.28 1017.19 1017.04 1016.84 1016.57 1016.26 1015.90 1015.50 1015.08 1014.63 1014.17 1013.68 1013.17 1012.64 1012.08 1011.52 1010.95 1010.41 1009.92 1009.50 1009.16 1008.92 1008.79 1008.75 1008.81 1008.96 1009.18 1009.47 1009.82 1010.25 1010.74 1011.30 1011.91 1012.58 1013.27
1017.98 1017.96 1017.93 1017.90 1017.87 1017.85 1017.82 1017.78 1017.71 1017.59 1017.42 1017.19 1016.91 1016.59 1016.22 1015.83 1015.42 1014.99 1014.55 1014.08 1013.58 1013.06 1012.50 1011.93 1011.35 1010.78 1010.26 1009.81 1009.43 1009.16 1008.99 1008.93 1008.97 1009.09 1009.29 1009.57 1009.91 1010.31 1010.77 1011.28 1011.84 1012.44 1013.06
1018.33 1018.34 1018.32 1018.30 1018.27 1018.23 1018.18 1018.11 1018.00 1017.84 1017.63 1017.38 1017.08 1016.74 1016.38 1016.01 1015.63 1015.23 1014.82 1014.38 1013.92 1013.41 1012.87 1012.29 1011.70 1011.13 1010.58 1010.09 1009.68 1009.36 1009.16 1009.06 1009.07 1009.17 1009.36 1009.62 1009.94 1010.33 1010.77 1011.26 1011.79 1012.34 1012.92
1018.64 1018.67 1018.66 1018.64 1018.60 1018.53 1018.45 1018.32 1018.16 1017.95 1017.69 1017.41 1017.09 1016.75 1016.41 1016.06 1015.71 1015.35 1014.98 1014.59 1014.16 1013.68 1013.16 1012.59 1012.00 1011.40 1010.83 1010.30 1009.85 1009.49 1009.24 1009.09 1009.06 1009.13 1009.29 1009.54 1009.86 1010.24 1010.68 1011.17 1011.69 1012.24 1012.80
1018.89 1018.93 1018.94 1018.91 1018.84 1018.74 1018.60 1018.42 1018.19 1017.93 1017.63 1017.31 1016.98 1016.65 1016.32 1016.00 1015.69 1015.37 1015.05 1014.70 1014.30 1013.85 1013.35 1012.79 1012.20 1011.59 1010.99 1010.43 1009.93 1009.52 1009.21 1009.01 1008.92 1008.95 1009.07 1009.30 1009.61 1009.99 1010.44 1010.94 1011.49 1012.06 1012.64
1019.09 1019.15 1019.16 1019.11 1019.01 1018.87 1018.67 1018.43 1018.15 1017.83 1017.49 1017.14 1016.80 1016.46 1016.15 1015.86 1015.58 1015.30 1015.02 1014.70 1014.34 1013.92 1013.44 1012.90 1012.31 1011.69 1011.07 1010.47 1009.93 1009.46 1009.08 1008.81 1008.66 1008.62 1008.70 1008.88 1009.17 1009.55 1010.01 1010.54 1011.13 1011.74 1012.38
1019.28 1019.34 1019.34 1019.27 1019.14 1018.94 1018.69 1018.39 1018.05 1017.68 1017.30 1016.93 1016.57 1016.23 1015.93 1015.65 1015.40 1015.15 1014.89 1014.60 1014.27 1013.88 1013.42 1012.90 1012.32 1011.71 1011.08 1010.46 1009.87 1009.35 1008.90 1008.56 1008.32 1008.21 1008.21 1008.34 1008.58 1008.94 1009.41 1009.96 1010.58 1011.25 1011.94
1019.49 1019.54 1019.52 1019.42 1019.24 1019.00 1018.70 1018.34 1017.95 1017.53 1017.11 1016.71 1016.33 1015.98 1015.67 1015.40 1015.15 1014.91 1014.67 1014.40 1014.09 1013.73 1013.30 1012.81 1012.26 1011.66 1011.04 1010.41 1009.80 1009.23 1008.72 1008.29 1007.97 1007.75 1007.67 1007.71 1007.89 1008.21 1008.65 1009.20 1009.85 1010.56 1011.32
1019.75 1019.77 1019.71 1019.57 1019.36 1019.07 1018.71 1018.30 1017.86 1017.40 1016.95 1016.51 1016.10 1015.73 1015.40 1015.11 1014.85 1014.61 1014.37 1014.10 1013.81 1013.47 1013.08 1012.62 1012.11 1011.55 1010.96 1010.34 1009.73 1009.12 1008.56 1008.06 1007.65 1007.33 1007.14 1007.08 1007.17 1007.41 1007.80 1008.33 1008.97 1009.70 1010.50
1020.04 1020.02 1019.92 1019.74 1019.48 1019.14 1018.74 1018.29 1017.80 1017.30 1016.81 1016.33 1015.89 1015.49 1015.12 1014.80 1014.51 1014.24 1013.98 1013.71 1013.43 1013.11 1012.75 1012.34 1011.89 1011.39 1010.84 1010.26 1009.66 1009.05 1008.45 1007.89 1007.39 1006.98 1006.67 1006.50 1006.48 1006.62 1006.93 1007.40 1008.01 1008.74 1009.55
Thickness
5564 5570 5577 5583 5588 5593 5599 5604 5609 5614 5620 5623 5626 5629 5632 5637 5639 5643 5647 5650 5651 5652 5653 5655 5655 5656 5655 5656 5656 5655 5654 5653 5653 5650 5647 5648 5651 5652 5652 5652 5652 5651 5650
5557 5564 5570 5575 5580 5586 5592 5596 5602 5608 5613 5618 5622 5624 5628 5631 5634 5636 5640 5643 5645 5647 5648 5649 5650 5650 5650 5649 5649 5649 5647 5646 5647 5644 5639 5636 5638 5642 5644 5644 5644 5644 5643
5550 5557 5563 5568 5573 5579 5584 5590 5596 5602 5608 5612 5615 5617 5621 5623 5625 5629 5633 5637 5640 5641 5642 5643 5644 5644 5645 5645 5645 5645 5643 5641 5640 5642 5638 5632 5631 5632 5634 5635 5636 5635 5635
5546 5551 5557 5562 5567 5573 5579 5584 5589 5595 5602 5606 5609 5612 5615 5618 5622 5625 5628 5631 5634 5635 5637 5637 5638 5639 5639 5640 5640 5640 5640 5638 5634 5634 5636 5635 5633 5628 5625 5625 5626 5626 5626
5541 5546 5551 5557 5562 5568 5573 5578 5584 5589 5595 5600 5603 5607 5611 5614 5617 5620 5622 5625 5628 5630 5631 5631 5632 5633 5634 5635 5635 5634 5634 5634 5632 5630 5628 5626 5625 5625 5622 5618 5617 5616 5616
5538 5542 5547 5552 5557 5562 5568 5573 5577 5582 5587 5592 5596 5601 5604 5608 5610 5613 5616 5619 5622 5623 5625 5626 5626 5627 5628 5628 5629 5629 5629 5629 5628 5626 5625 5623 5621 5619 5617 5614 5610 5608 5607
5533 5537 5541 5545 5550 5555 5561 5566 5571 5576 5580 5585 5590 5594 5598 5601 5604 5608 5611 5613 5615 5616 5618 5620 5621 5621 5622 5622 5623 5623 5623 5622 5622 5621 5620 5619 5618 5617 5614 5610 5605 5600 5598
5527 5531 5534 5539 5544 5550 5556 5561 5566 5570 5575 5580 5584 5587 5591 5594 5598 5602 5606 5608 5610 5612 5613 5614 5614 5615 5616 5616 5616 5616 5616 5615 5615 5614 5614 5612 5612 5610 5609 5607 5601 5594 5590
5522 5525 5529 5533 5538 5544 5549 5554 5559 5564 5569 5574 5577 5581 5584 5588 5593 5597 5599 5602 5604 5605 5606 5607 5608 5608 5609 5609 5608 5609 5609 5608 5607 5607 5607 5605 5604 5603 5602 5601 5599 5593 5587
5518 5520 5523 5527 5532 5537 5542 5548 5553 5557 5561 5566 5570 5573 5577 5581 5585 5589 5591 5593 5596 5598 5598 5599 5600 5600 5600 5601 5601 5601 5601 5600 5599 5598 5598 5597 5596 5595 5593 5592 5590 5587 5584
5511 5513 5517 5521 5525 5530 5536 5541 5545 5550 5554 5558 5562 5565 5569 5573 5576 5579 5582 5585 5587 5589 5589 5590 5591 5591 5591 5592 5592 5592 5592 5592 5591 5589 5589 5588 5587 5585 5583 5581 5579 5577 5574
5505 5508 5511 5515 5519 5523 5527 5532 5537 5541 5545 5549 5553 5556 5559 5563 5566 5569 5572 5574 5576 5577 5579 5581 5582 5582 5582 5583 5584 5584 5584 5583 5582 5581 5580 5578 5576 5575 5574 5571 5569 5567 5565
5503 5505 5508 5510 5513 5516 5520 5524 5528 5532 5535 5539 5542 5545 5548 5551 5554 5557 5560 5562 5564 5566 5568 5570 5571 5572 5572 5572 5574 5574 5574 5574 5573 5571 5570 5570 5567 5565 5563 5561 5559 5557 5553
5501 5502 5502 5504 5506 5509 5513 5516 5519 5522 5526 5529 5532 5534 5536 5538 5541 5544 5547 5549 5551 5553 5555 5556 5558 5559 5560 5560 5561 5562 5563 5563 5561 5560 5560 5559 5558 5556 5554 5551 5549 5546 5542
5498 5498 5497 5497 5499 5502 5505 5507 5509 5512 5515 5517 5520 5521 5523 5525 5527 5530 5532 5535 5537 5539 5540 5542 5544 5545 5546 5546 5547 5548 5549 5549 5549 5548 5547 5547 5546 5545 5544 5542 5539 5536 5532
5495 5494 5494 5494 5494 5494 5495 5497 5498 5500 5503 5504 5505 5507 5509 5511 5513 5515 5517 5518 5520 5522 5525 5526 5528 5530 5531 5532 5533 5534 5535 5535 5535 5534 5533 5533 5533 5533 5532 5531 5529 5527 5524
5491 5489 5487 5486 5486 5486 5487 5487 5487 5489 5490 5490 5492 5493 5494 5495 5496 5498 5499 5500 5502 5503 5505 5507 5510 5513 5514 5516 5517 5518 5519 5519 5520 5519 5519 5519 5519 5519 5519 5518 5517 5515 5515
5485 5483 5481 5480 5479 5478 5478 5478 5478 5478 5478 5478 5478 5478 5478 5478 5479 5480 5480 5481 5483 5484 5485 5487 5490 5493 5496 5498 5500 5501 5501 5503 5504 5504 5505 5505 5505 5505 5505 5504 5502 5501 5501
5479 5475 5474 5472 5470 5468 5467 5467 5465 5464 5463 5463 5462 5461 5461 5460 5460 5461 5461 5462 5463 5464 5465 5468 5470 5473 5477 5479 5482 5483 5483 5485 5486 5488 5490 5491 5491 5492 5492 5489 5487 5486 5485
5471 5468 5465 5463 5460 5458 5457 5455 5452 5450 5449 5447 5446 5445 5443 5442 5441 5440 5441 5441 5442 5444 5446 5448 5451 5453 5456 5459 5462 5464 5465 5467 5469 5471 5473 5476 5477 5478 5478 5476 5475 5473 5472
5465 5462 5458 5453 5450 5448 5445 5443 5440 5437 5435 5433 5431 5429 5426 5423 5422 5422 5421 5421 5422 5424 5425 5428 5431 5433 5436 5439 5442 5445 5446 5449 5451 5453 5456 5459 5462 5463 5463 5463 5463 5463 5461
5457 5453 5448 5444 5440 5437 5433 5430 5426 5424 5421 5418 5415 5411 5408 5405 5404 5402 5401 5400 5400 5401 5404 5406 5410 5412 5415 5418 5421 5425 5427 5430 5433 5437 5440 5443 5446 5447 5449 5449 5450 5449 5448
5448 5444 5438 5434 5430 5425 5421 5416 5413 5410 5405 5401 5396 5392 5388 5385 5382 5380 5379 5378 5378 5379 5381 5383 5387 5390 5393 5395 5400 5404 5408 5411 5415 5419 5423 5427 5430 5432 5434 5436 5436 5436 5434
5438 5433 5428 5423 5418 5413 5408 5403 5399 5394 5389 5383 5378 5373 5369 5366 5363 5360 5358 5357 5356 5357 5359 5361 5365 5369 5372 5374 5378 5383 5388 5393 5396 5400 5405 5410 5414 5417 5420 5422 5423 5423 5423
5429 5423 5417 5412 5407 5401 5395 5390 5383 5377 5370 5364 5359 5355 5350 5346 5344 5341 5338 5337 5337 5336 5339 5342 5344 5348 5353 5357 5361 5365 5370 5374 5378 5381 5385 5391 5396 5401 5404 5407 5409 5410 5411
5418 5412 5406 5400 5394 5388 5381 5374 5367 5359 5352 5347 5342 5337 5333 5329 5326 5324 5324 5323 5321 5322 5324 5325 5328 5332 5336 5341 5345 5350 5355 5359 5363 5366 5370 5377 5383 5389 5392 5395 5396 5398 5400